一网星座-0270星 (ONEWEB-0270 )

导读

ONEWEB-0270是英国OneWeb卫星互联网星座的成员,于2021年7月1日发射入轨,属于OneWeb第八批次组网卫星。它运行在高度约1200公里的近地轨道,配备Ku/Ka波段通信天线,支持全球低时延宽带接入,为航空、海事、偏远地区及应急场景提供互联网服务,助力OneWeb完成初期648颗低轨卫星的星座部署,推动全球覆盖的高速卫星网络建设。

基本信息
目录编号:
48988
目录名称:
ONEWEB-0270
国际标识:
2021-060X
轨道中心:
EARTH
卫星名称:
一网星座-0270星
卫星全名:
一网星座-0270星 (ONEWEB-0270 )
卫星状态:
在轨 (已飞行1807 天)
发射日期:
2021-07-01 UTC
国别 :
英国 (GB)
星等 :
--
轨道信息
数据来源 国际轨道数据
星历时间: 2026-06-12T13:50:57+0800
15小时前
查看轨道信息
半长轴: 7575.895km
偏心率: 0.0001771
轨道倾角: 87.910°
近地点辐角 106.608°
升交点赤经 229.765°
平近点角 253.525°
近地点: 1196.416km
远地点: 1199.1km
周期: 109.373分钟
每日圈数: 13.165941
详细信息
平衡模式:
三轴稳定
覆盖范围:
全球
运营商:
一网卫星公司
运营商所在国:
英国
制造商(研发单位):
一网卫星公司
制造商所在国:
英国
使用方式:
暂无
卫星简介
OneWeb卫星网络由648颗重约125公斤的微型卫星组成,运行在1200公里的轨道上。 每颗卫星都能够提供至少每秒8千兆位的吞吐量,以使用其高吞吐量的Ku频段有效载荷为家庭和移动平台提供互联网接入。该卫星仍在工作。
2D轨道图
3D轨道图
轨道高度分析图
轨道倾角分析图
轨道综合分析图
查看轨道综合分析图